Location: Oberkirch
(48.5323°N, 8.0787°E)
Time: 22:04:45
(UTC+00:00)

Tiros 1 - Pass Details

Date: 21 February 2026
Orbit: 618 x 649 km, 48.4° (Epoch: 9 March)

Event Time Altitude Azimuth Distance (km) Brightness Sun altitude
Rises 09:26:12 0° 267° (W) 2,910 10.2 23.9°
Reaches altitude 10° 09:28:31 10° 267° (W) 1,998 9.4 24.1°
Maximum altitude 09:33:08 90° 176° (S) 627 7.5 24.6°
Drops below altitude 10° 09:37:42 10° 89° (E) 1,984 10.2 25.0°
Sets 09:40:00 0° 90° (E) 2,888 10.9 25.2°
